When you browse on this site, cookies collect data to enhance your experience and personalize the content and advertising you see.
Visit our Privacy Policy to learn more. By continuing to use the site, you agree to this use of cookies and data.
  • In Hungary
  • List of Countries
  • For 7 days
  • Water Temperature
  • Weather Map
  • News
  • Weather Widgets
  • user-avatar
    Login

    Hourly Weather Sliven

    Today, 28 May, Thursday

    Time Temperature Precipitation Wind Pressure Humidity
    00:00 +9°C° 0 mm 2 mps 734 mmHg 92%
    01:00 +9°C° 0 mm 2 mps 734 mmHg 92%
    02:00 +8°C° 0 mm 2 mps 734 mmHg 92%
    03:00 +8°C° 0 mm 2 mps 733 mmHg 93%
    04:00 +8°C° 0 mm 2 mps 733 mmHg 93%
    05:00 +8°C° 0 mm 2 mps 733 mmHg 93%
    06:00 +9°C° 0 mm 2 mps 733 mmHg 89%
    07:00 +12°C° 0 mm 2 mps 733 mmHg 84%
    08:00 +14°C° 0 mm 2 mps 733 mmHg 79%
    09:00 +14°C° 0.2 mm 3 mps 733 mmHg 74%
    10:00 +16°C° 0.2 mm 3 mps 733 mmHg 69%
    11:00 +17°C° 0.2 mm 3 mps 733 mmHg 64%
    12:00 +17°C° 0.7 mm 3 mps 732 mmHg 65%
    13:00 +17°C° 0.7 mm 3 mps 732 mmHg 66%
    14:00 +17°C° 0.7 mm 2 mps 732 mmHg 67%
    15:00 +17°C° 1.1 mm 2 mps 731 mmHg 69%
    16:00 +17°C° 1.1 mm 2 mps 731 mmHg 70%
    17:00 +18°C° 1.1 mm 1 mps 731 mmHg 72%
    18:00 +15°C° 0.5 mm 1 mps 731 mmHg 76%
    19:00 +14°C° 0.5 mm 1 mps 731 mmHg 81%
    20:00 +12°C° 0.5 mm 1 mps 731 mmHg 86%
    21:00 +12°C° 0 mm 1 mps 731 mmHg 86%
    22:00 +11°C° 0 mm 1 mps 731 mmHg 86%
    23:00 +11°C° 0 mm 1 mps 731 mmHg 86%

    Tomorrow, 29 May, Friday

    Time Temperature Precipitation Wind Pressure Humidity
    00:00 +10°C° 0 mm 1 mps 731 mmHg 86%
    01:00 +10°C° 0 mm 1 mps 731 mmHg 86%
    02:00 +10°C° 0 mm 1 mps 731 mmHg 87%
    03:00 +10°C° 0.2 mm 1 mps 731 mmHg 87%
    04:00 +10°C° 0.2 mm 1 mps 731 mmHg 88%
    05:00 +10°C° 0.2 mm 1 mps 731 mmHg 89%
    06:00 +11°C° 0.2 mm 1 mps 731 mmHg 86%
    07:00 +13°C° 0.2 mm 1 mps 731 mmHg 83%
    08:00 +14°C° 0.2 mm 1 mps 732 mmHg 80%
    09:00 +16°C° 1 mm 2 mps 732 mmHg 76%
    10:00 +17°C° 1 mm 2 mps 732 mmHg 72%
    11:00 +18°C° 1 mm 2 mps 731 mmHg 68%
    12:00 +18°C° 1.3 mm 2 mps 731 mmHg 67%
    13:00 +19°C° 1.3 mm 2 mps 731 mmHg 66%
    14:00 +19°C° 1.3 mm 2 mps 731 mmHg 65%
    15:00 +19°C° 1 mm 2 mps 731 mmHg 66%
    16:00 +19°C° 1 mm 2 mps 731 mmHg 67%
    17:00 +19°C° 1 mm 1 mps 731 mmHg 69%
    18:00 +18°C° 0.5 mm 1 mps 730 mmHg 74%
    19:00 +15°C° 0.5 mm 1 mps 730 mmHg 79%
    20:00 +13°C° 0.5 mm 1 mps 730 mmHg 84%
    21:00 +13°C° 0 mm 1 mps 730 mmHg 84%
    22:00 +12°C° 0 mm 1 mps 731 mmHg 85%
    23:00 +12°C° 0 mm 1 mps 731 mmHg 86%

    Day after tomorrow, 30 May, Saturday

    Time Temperature Precipitation Wind Pressure Humidity
    00:00 +12°C° 0 mm 1 mps 731 mmHg 86%
    01:00 +11°C° 0 mm 1 mps 730 mmHg 86%
    02:00 +11°C° 0 mm 1 mps 730 mmHg 86%
    03:00 +11°C° 0 mm 1 mps 730 mmHg 87%
    04:00 +11°C° 0 mm 1 mps 730 mmHg 88%
    05:00 +11°C° 0 mm 1 mps 730 mmHg 88%
    06:00 +13°C° 0 mm 1 mps 731 mmHg 84%
    07:00 +14°C° 0 mm 1 mps 731 mmHg 80%
    08:00 +16°C° 0 mm 1 mps 731 mmHg 76%
    09:00 +18°C° 0.2 mm 1 mps 731 mmHg 72%
    10:00 +18°C° 0.2 mm 2 mps 731 mmHg 69%
    11:00 +19°C° 0.2 mm 2 mps 731 mmHg 65%
    12:00 +20°C° 0.6 mm 2 mps 731 mmHg 65%
    13:00 +20°C° 0.6 mm 2 mps 731 mmHg 64%
    14:00 +21°C° 0.6 mm 2 mps 731 mmHg 63%
    15:00 +20°C° 0.6 mm 2 mps 731 mmHg 65%
    16:00 +21°C° 0.6 mm 1 mps 730 mmHg 67%
    17:00 +21°C° 0.6 mm 1 mps 730 mmHg 70%
    18:00 +19°C° 0.3 mm 1 mps 730 mmHg 74%
    19:00 +18°C° 0.3 mm 1 mps 730 mmHg 78%
    20:00 +16°C° 0.3 mm 1 mps 730 mmHg 83%
    21:00 +15°C° 0.3 mm 1 mps 730 mmHg 84%
    22:00 +15°C° 0.3 mm 1 mps 730 mmHg 85%
    23:00 +15°C° 0.3 mm 1 mps 730 mmHg 86%

    31 May, Sunday

    Time Temperature Precipitation Wind Pressure Humidity
    00:00 +14°C° 0 mm 1 mps 730 mmHg 87%
    01:00 +13°C° 0 mm 1 mps 730 mmHg 88%
    02:00 +12°C° 0 mm 0 mps 729 mmHg 88%
    03:00 +13°C° 0 mm 1 mps 729 mmHg 88%
    04:00 +12°C° 0 mm 1 mps 729 mmHg 88%
    05:00 +12°C° 0 mm 1 mps 729 mmHg 88%
    06:00 +14°C° 0 mm 1 mps 729 mmHg 86%
    07:00 +15°C° 0 mm 1 mps 730 mmHg 83%
    08:00 +18°C° 0 mm 1 mps 730 mmHg 80%
    09:00 +19°C° 0.9 mm 1 mps 730 mmHg 77%
    10:00 +20°C° 0.9 mm 1 mps 730 mmHg 74%
    11:00 +20°C° 0.9 mm 2 mps 730 mmHg 71%
    12:00 +21°C° 1.6 mm 1 mps 729 mmHg 71%
    13:00 +21°C° 1.6 mm 1 mps 729 mmHg 71%
    14:00 +21°C° 1.6 mm 1 mps 728 mmHg 71%
    15:00 +20°C° 1.3 mm 1 mps 728 mmHg 76%
    16:00 +19°C° 1.3 mm 1 mps 728 mmHg 81%
    17:00 +18°C° 1.3 mm 1 mps 728 mmHg 86%
    18:00 +16°C° 0.8 mm 1 mps 728 mmHg 88%
    19:00 +15°C° 0.8 mm 1 mps 728 mmHg 90%
    20:00 +15°C° 0.8 mm 2 mps 728 mmHg 92%
    21:00 +14°C° 0.2 mm 1 mps 728 mmHg 91%
    22:00 +14°C° 0.2 mm 1 mps 728 mmHg 90%
    23:00 +14°C° 0.2 mm 1 mps 728 mmHg 89%

    1 June, Monday

    Time Temperature Precipitation Wind Pressure Humidity
    00:00 +13°C° 0 mm 1 mps 728 mmHg 89%
    01:00 +13°C° 0 mm 1 mps 728 mmHg 89%
    02:00 +12°C° 0 mm 1 mps 728 mmHg 88%
    03:00 +12°C° 0 mm 1 mps 728 mmHg 88%
    04:00 +12°C° 0 mm 1 mps 728 mmHg 88%
    05:00 +12°C° 0 mm 1 mps 728 mmHg 88%
    06:00 +14°C° 0 mm 1 mps 728 mmHg 84%
    07:00 +15°C° 0 mm 1 mps 728 mmHg 80%
    08:00 +16°C° 0 mm 2 mps 728 mmHg 76%
    09:00 +16°C° 0 mm 2 mps 728 mmHg 74%
    10:00 +17°C° 0 mm 2 mps 728 mmHg 71%
    11:00 +18°C° 0 mm 2 mps 728 mmHg 68%
    12:00 +19°C° 0.3 mm 1 mps 728 mmHg 69%
    13:00 +19°C° 0.3 mm 1 mps 728 mmHg 70%
    14:00 +20°C° 0.3 mm 1 mps 727 mmHg 71%
    15:00 +20°C° 0.5 mm 1 mps 727 mmHg 72%
    16:00 +20°C° 0.5 mm 1 mps 727 mmHg 73%
    17:00 +19°C° 0.5 mm 1 mps 727 mmHg 73%
    18:00 +18°C° 0.4 mm 1 mps 727 mmHg 78%
    19:00 +16°C° 0.4 mm 1 mps 727 mmHg 83%
    20:00 +14°C° 0.4 mm 1 mps 727 mmHg 88%
    21:00 +14°C° 0.2 mm 1 mps 727 mmHg 90%
    22:00 +14°C° 0.2 mm 1 mps 728 mmHg 91%
    23:00 +13°C° 0.2 mm 1 mps 728 mmHg 92%

    2 June, Tuesday

    Time Temperature Precipitation Wind Pressure Humidity
    00:00 +13°C° 0.4 mm 1 mps 728 mmHg 93%
    01:00 +13°C° 0.4 mm 1 mps 728 mmHg 93%
    02:00 +13°C° 0.4 mm 1 mps 728 mmHg 93%
    03:00 +13°C° 0.5 mm 1 mps 728 mmHg 94%
    04:00 +13°C° 0.5 mm 1 mps 727 mmHg 94%
    05:00 +13°C° 0.5 mm 1 mps 727 mmHg 94%
    06:00 +14°C° 0.3 mm 1 mps 728 mmHg 94%
    07:00 +14°C° 0.3 mm 1 mps 728 mmHg 93%
    08:00 +14°C° 0.3 mm 1 mps 728 mmHg 92%
    09:00 +15°C° 0.4 mm 1 mps 729 mmHg 90%
    10:00 +16°C° 0.4 mm 1 mps 729 mmHg 88%
    11:00 +16°C° 0.4 mm 2 mps 729 mmHg 87%
    12:00 +17°C° 0.8 mm 2 mps 729 mmHg 82%
    13:00 +19°C° 0.8 mm 2 mps 728 mmHg 78%
    14:00 +20°C° 0.8 mm 2 mps 728 mmHg 74%
    15:00 +20°C° 1.1 mm 2 mps 728 mmHg 75%
    16:00 +19°C° 1.1 mm 2 mps 728 mmHg 77%
    17:00 +19°C° 1.1 mm 2 mps 727 mmHg 78%
    18:00 +18°C° 0.5 mm 2 mps 727 mmHg 83%
    19:00 +16°C° 0.5 mm 2 mps 727 mmHg 87%
    20:00 +15°C° 0.5 mm 1 mps 727 mmHg 92%
    21:00 +14°C° 0.1 mm 1 mps 727 mmHg 93%
    22:00 +14°C° 0.1 mm 1 mps 728 mmHg 93%
    23:00 +13°C° 0.1 mm 1 mps 728 mmHg 94%
    Show more